Location: Diebersbach
(48.5163°N, 8.0558°E)
Time: 14:54:48
(UTC+00:00)

IDEFIX/ARIANE 42P - Pass Details

Date: 20 June 2021
Orbit: 784 x 803 km, 98.4° (Epoch: 04 August)

Event Time Altitude Azimuth Distance (km) Brightness Sun altitude
Rises 01:39:03 0° 19° (NNE) 3,318 7.6 -12.4°
Reaches altitude 10° 01:41:32 10° 27° (NNE) 2,381 6.6 -12.2°
Maximum altitude 01:46:30 41° 97° (E) 1,134 3.6 -11.8°
Drops below altitude 10° 01:51:25 10° 168° (SSE) 2,352 4.6 -11.3°
Enters shadow 01:52:19 - 171° (S) 2,689 4.9 -11.3°
